Location: Chiroubles
(46.1812°N, 4.6660°E)
Time: 02:29:40
(UTC+00:00)

Explorer 7 - Pass Details

Date: 04 December 2020
Orbit: 484 x 678 km, 50.3° (Epoch: 25 January)

Event Time Altitude Azimuth Distance (km) Brightness Sun altitude
Exits shadow 05:04:36 56° 246° (WSW) 663 6.9 -20.4°
Maximum altitude 05:05:05 61° 211° (SSW) 626 6.9 -20.4°
Drops below altitude 10° 05:09:03 10° 131° (SE) 1,764 10.3 -19.7°
Sets 05:11:12 0° 127° (SE) 2,622 11.4 -19.3°
